Regional Weather Roundup
Issued by NWS Charleston, SC

Current Version | Previous Version | Text Only | Print | Product List | Glossary Off
Versions: 1 2 3 4 5 6 7 8 9 10 11 12 13 14 15 16 17 18 19 20 21 22 23 24 25 26 27 28 29 30 31 32 33 34 35 36 37 38 39 40 41 42 43 44 45 46 47 48 49 50

969
ASUS42 KCHS 200812
RWRCHS

REGIONAL WEATHER ROUNDUP
NATIONAL WEATHER SERVICE CHARLESTON SC
400 AM EDT FRI OCT 20 2017

NOTE: "FAIR" INDICATES FEW OR NO CLOUDS BELOW 12,000 FEET WITH NO
SIGNIFICANT WEATHER AND/OR OBSTRUCTIONS TO VISIBILITY.

NOT ALL STATIONS ARE QUALITY CONTROLLED. USE DATA WITH CAUTION...
ESPECIALLY DEWPOINT OBSERVATIONS.

SCZ027-030-031-034>040-042>050-200900-
...SOUTHEAST SOUTH CAROLINA...

CITY           SKY/WX    TMP DP  RH WIND       PRES   REMARKS
N CHARLESTON   FAIR      54  54 100 N5        30.20S
WATERFRONT PRK NOT AVBL
JOHNS ISLAND   FAIR      57  57 100 CALM      30.20S
PINOPOLIS        N/A    N/A N/A N/A CALM      30.12S
MONCKS CORNER  FAIR      52  50  93 CALM      30.21S
SUMMERVILLE    FAIR      50  50 100 CALM      30.22S
BEAUFORT MCAS  FAIR      58  58 100 MISG      30.20F
BEAUFORT ARPT  FAIR      59  55  88 CALM      30.19F
HILTON HEAD IS FAIR      61  59  94 NE3       30.20F
WALTERBORO     FAIR      46  46 100 N3        30.22S
ALLENDALE        N/A     48  48 100 CALM        N/A

...SOUTHERN MIDLANDS AND PEE DEE...

CITY           SKY/WX    TMP DP  RH WIND       PRES   REMARKS
GEORGETOWN     FAIR      52  50  93 CALM      30.21S
KINGSTREE      FAIR      46  45  93 CALM      30.22S
ORANGEBURG     FAIR      51  49  92 CALM      30.23S
BARNWELL         N/A     48  46  93 CALM      30.22F
AIKEN          FAIR      43  41  93 CALM      30.26F
MANNING        FOG       46  46 100 MISG      30.22S VSB<1/4
COLUMBIA       FAIR      46  45  96 CALM      30.22F
SUMTER         FAIR      55  47  74 CALM      30.20S
FLORENCE       FAIR      50  50 100 CALM      30.22S FOG
MYRTLE BEACH   FAIR      57  56  96 CALM      30.22S
N MYRTLE BEACH FAIR      55  55 100 N3        30.20S

$$

GAZ063-065-086>088-099>101-113>116-118-119-134>141-150-200900-
...SOUTHEAST GEORGIA...

CITY           SKY/WX    TMP DP  RH WIND       PRES   REMARKS
SAVANNAH ARPT  FAIR      57  56  96 CALM      30.21S
HUNTER AAF     FAIR      59  56  90 N3        30.18S
FORT STEWART   FAIR      58  55  91 CALM      30.18F
STATESBORO     FAIR      50  50 100 CALM      30.21S
SYLVANIA       FAIR      49  49 100 CALM      30.22S
CLAXTON        FAIR      51  50  99 CALM      30.21F

...CSRA...CENTRAL AND FAR SOUTHEAST GEORGIA...

CITY           SKY/WX    TMP DP  RH WIND       PRES   REMARKS
THOMSON        FAIR      42  41  95 CALM      30.29S
AUGUSTA-BUSH   FAIR      47  45  93 W3        30.23S
AUGUSTA-DANIEL FAIR      57  45  64 N6        30.23F
SWAINSBORO     FAIR      50  50 100 CALM      30.23S
VIDALIA        FAIR      55  52  88 CALM      30.22S
EASTMAN        FOG       49  49 100 CALM      30.25S VSB 3/4
HAZLEHURST     FAIR      56  53  89 CALM      30.20S
ALMA           FAIR      56  54  93 CALM      30.20S
WAYCROSS       FAIR      57  54  91 CALM      30.19F
JESUP          NOT AVBL
BAXLEY         FAIR      54  54 100 CALM      30.20S
BRUNSWICK      FAIR      63  59  88 N5        30.19S
SAINT SIMONS   FAIR      66  64  93 N7        30.17F

$$

SCZ027-028-034-036>038-045-046-048>050-GAZ119-141-200900-
...LAKE AND SUPPLEMENTAL COASTAL OBSERVATIONS...

STATION/POSITION TIME  TEMP    WIND        PRES    WAVE   SWELL
                       AIR SEA DIR/SP/G            HT/PER HT/PER/DIR
                 (UTC) (F)     (DEG/KT/KT) (MB)    (FT/S) (FT/S/D)
WINYAH BAY       0645   59     320/  2     1023.0
LAKE MURRAY      0720   55      CALM  /  1 1023.0
ACE BASIN NERRS  0645   58        CALM     1023.0
FORT PULASKI     0748   66 74   10/  5/  7 1022.7F
SAPELO ISLAND    0700   66      20/  7     1022.0

$$

ANZ835-935-AMZ111-154-330-350-352-354-370-450-454-472-200900-
...C-MAN AND BUOY OBSERVATIONS...

STATION/POSITION TIME  TEMP    WIND        PRES    WAVE   SWELL
                       AIR SEA DIR/SP/G            HT/PER HT/PER/DIR
                 (UTC) (F)     (DEG/KT/KT) (MB)    (FT/S) (FT/S/D)
BUOY 41004       0750   76 79   40/ 10/ 12 1021.3F   5/ 8   5/110/ 8
BUOY 41008       0750   75 77   50/ 14/ 17 1021.4F   5/ 8   3/120/ 8
FOLLY BEACH CMAN 0700   64     350/  5/  7 1023.1F
CAPERS NEARSHORE 0708   66 73   10/  8/ 12 1022.2F
FRIPP NEARSHORE  0708   71      20/ 10/ 12   N/A


STATION/POSITION TIME  TEMP    WIND        PRES    WAVE   SWELL
                       AIR SEA DIR/SP/G            HT/PER HT/PER/DIR
                 (UTC) (F)     (DEG/KT/KT) (MB)    (FT/S) (FT/S/D)
5E ST. MARYS GA  0730      77                N/A     5/ 9
FRYING PAN BUOY  0750   74 76   10/  8/ 10 1021.8S   4/ 8   3/100/ 8
BUOY 41025       0750   73 81  320/  8/ 12 1021.9F   3/ 8   3/110/ 8
CAPE LOOKOUT NC  0700   66     340/  6/  6 1022.1F
BUOY 41002       0750   77 80   40/ 12/ 16 1019.3F   6/ 8   5/ 80/ 8
BUOY 41010       NOT AVBL
ST AUGUSTINE FL  0800   78 77   70/ 16/ 17 1020.2F


$$




USA.gov is the U.S. government's official web portal to all federal, state and local government web resources and services.